TimeAKDT,TemperatureF,Dew PointF,Humidity,Sea Level PressureIn,VisibilityMPH,Wind Direction,Wind SpeedMPH,Gust SpeedMPH,PrecipitationIn,Events,Conditions,WindDirDegrees,DateUTC
12:53 AM,55.9,50.0,80,29.87,10.0,South,3.5,-,0.02,Rain,Light Rain,190,2012-05-25 08:53:00
1:53 AM,54.0,51.1,90,29.86,10.0,WSW,3.5,-,0.01,Rain,Light Rain,250,2012-05-25 09:53:00
2:53 AM,52.0,50.0,93,29.86,10.0,Calm,Calm,-,0.03,Rain,Light Rain,0,2012-05-25 10:53:00
3:53 AM,52.0,51.1,97,29.85,10.0,Calm,Calm,-,0.05,Rain,Light Rain,0,2012-05-25 11:53:00
4:53 AM,51.1,50.0,96,29.84,10.0,Calm,Calm,-,0.00,Rain,Light Rain,0,2012-05-25 12:53:00
5:53 AM,51.1,50.0,96,29.82,10.0,Calm,Calm,-,0.00,Rain,Light Rain,0,2012-05-25 13:53:00
6:53 AM,51.1,50.0,96,29.81,4.0,SSW,4.6,-,0.02,Rain,Light Rain,210,2012-05-25 14:53:00
7:53 AM,51.1,50.0,96,29.81,3.0,SSW,4.6,-,0.04,Rain,Light Rain,200,2012-05-25 15:53:00
8:53 AM,51.1,48.9,92,29.79,5.0,WSW,3.5,-,0.08,Rain,Light Rain,240,2012-05-25 16:53:00
9:53 AM,51.1,48.9,92,29.79,7.0,SSW,3.5,-,0.04,Rain,Light Rain,210,2012-05-25 17:53:00
10:34 AM,51.8,48.2,88,29.76,7.0,WSW,8.1,-,0.01,Rain,Light Rain,250,2012-05-25 18:34:00
10:53 AM,52.0,48.9,89,29.78,10.0,West,8.1,-,0.01,,Overcast,260,2012-05-25 18:53:00
11:53 AM,52.0,48.0,86,29.76,10.0,West,4.6,-,0.00,Rain,Light Rain,260,2012-05-25 19:53:00
12:53 PM,51.1,48.0,89,29.75,7.0,SW,3.5,-,0.02,Rain,Light Rain,220,2012-05-25 20:53:00
1:53 PM,52.0,48.9,89,29.74,7.0,Variable,5.8,-,0.04,Rain,Light Rain,0,2012-05-25 21:53:00
2:53 PM,52.0,48.9,89,29.73,10.0,Calm,Calm,-,0.03,Rain,Light Rain,0,2012-05-25 22:53:00
3:53 PM,52.0,50.0,93,29.72,7.0,SW,3.5,-,0.06,Rain,Light Rain,220,2012-05-25 23:53:00
4:53 PM,52.0,48.9,89,29.70,7.0,West,8.1,-,0.05,Rain,Light Rain,260,2012-05-26 00:53:00
5:53 PM,51.1,48.0,89,29.69,7.0,South,8.1,-,0.04,Rain,Light Rain,170,2012-05-26 01:53:00
6:16 PM,51.8,48.2,88,29.67,7.0,South,4.6,-,0.00,Rain,Light Rain,180,2012-05-26 02:16:00
6:53 PM,51.1,48.0,89,29.68,7.0,Variable,5.8,-,0.00,Rain,Light Rain,0,2012-05-26 02:53:00
7:41 PM,51.8,46.4,82,29.66,10.0,SSW,5.8,-,0.00,Rain,Light Rain,210,2012-05-26 03:41:00
7:53 PM,51.1,46.9,86,29.67,10.0,SSW,4.6,-,0.00,Rain,Light Rain,210,2012-05-26 03:53:00
8:53 PM,50.0,46.9,89,29.67,10.0,South,4.6,-,0.00,Rain,Light Rain,190,2012-05-26 04:53:00
9:53 PM,50.0,46.0,86,29.66,10.0,Calm,Calm,-,0.00,Rain,Light Rain,0,2012-05-26 05:53:00
10:53 PM,48.9,46.0,90,29.66,10.0,South,6.9,-,0.00,,Mostly Cloudy,180,2012-05-26 06:53:00
11:53 PM,48.0,45.0,89,29.65,10.0,Calm,Calm,-,N/A,,Overcast,0,2012-05-26 07:53:00